Regional Weather Roundup
Issued by NWS Jackson, KY

Home | Current Version | Previous Version | Text Only | Print | Product List | Glossary On
Versions: 1 2 3 4 5 6 7 8 9 10 11 12 13 14 15 16 17 18 19 20 21 22 23 24 25 26 27
000
ASUS43 KJKL 221310
RWRJKL

EAST KENTUCKY HOURLY WEATHER ROUNDUP
NATIONAL WEATHER SERVICE JACKSON KY
900 AM EDT SAT JUL 22 2017

NOTE: "FAIR" INDICATES FEW OR NO CLOUDS BELOW 12,000 FEET WITH
NO SIGNIFICANT WEATHER AND/OR OBSTRUCTIONS TO VISIBILITY.

* THESE REPORTS ARE NOT UNDER NWS QUALITY CONTROL AND MAY NOT
  REPORT WEATHER SUCH AS PRECIPITATION AND FOG.

KYZ079-080-083-085-087-088-110-112-115-119-120-221400
...EASTERN KENTUCKY...

CITY           SKY/WX    TMP DP  RH WIND       PRES   REMARKS
JACKSON        SUNNY     78  72  81 CALM      30.02R
LONDON         SUNNY     79  72  79 SW5       30.03R
SOMERSET*      CLOUDY    77  73  88 CALM      30.03R
MONTICELLO*    SUNNY     82  75  79 W10       30.03R
WILLIAMSBURG*  SUNNY     77  75  94 CALM      30.04R
MIDDLESBORO*   MOSUNNY   74  73  96 CALM      30.06R
HARLAN APT*    CLOUDY    72  70  94 CALM      30.06S VSB 1/2
MOREHEAD APT*  CLOUDY    79  72  78 SW8       30.00R
ASHLAND*         N/A    N/A N/A N/A MISG        N/A
$$

KYZ035-036-041-042-044-050-067-078-099-221400
...CENTRAL KENTUCKY...

CITY           SKY/WX    TMP DP  RH WIND       PRES   REMARKS
MT STERLING*   MOSUNNY   79  73  83 SW5       30.00R
FLEMING/MASON* CLOUDY    80  76  87 SW6       29.97R
DANVILLE*      SUNNY     81  73  78 SW6       30.01R
LEXINGTON      CLOUDY    79  73  82 SW8       29.98R HAZE
FRANKFORT      CLOUDY    81  74  79 SW8       29.95R
LOUISVILLE     CLOUDY    86  76  71 SW8       29.93R HX  96
LEBANON*         N/A     81  75  83 S5        29.98S
GLASGOW*       SUNNY     82  74  77 SW3       29.98S
BOWLING GREEN  SUNNY     84  76  76 SW6       29.97R HX  93
$$

KYZ091>093-OHZ055-061-077-WVZ005-015-034-035-042-221400
...SOUTHERN OHIO/WEST VIRGINIA...

CITY           SKY/WX    TMP DP  RH WIND       PRES   REMARKS
COVINGTON      PTSUNNY   79  77  94 S7        29.92F FOG
COLUMBUS       CLOUDY    72  72 100 S9        29.90F
DAYTON         CLOUDY    73  70  90 S6        29.90S
WILMINGTON     PTSUNNY   75  75 100 S6        29.91F
HUNTINGTON     CLOUDY    78  74  87 SW3       29.96R
CHARLESTON     CLOUDY    75  70  84 CALM      29.98R
PINEVILLE*     MOSUNNY   75  71  86 MISG      30.10S
BECKLEY        MOSUNNY   76  69  79 SW6       30.09R
BLUEFIELD      SUNNY     74  68  81 W7        30.13R
LOGAN CO APT*    N/A     77  72  83 CALM      30.03R
$$

VAZ002-007-008-TNZ017-027-036-066-071-221400
...SOUTHWEST VIRGINIA/EAST TENNESSEE...

CITY           SKY/WX    TMP DP  RH WIND       PRES   REMARKS
WISE*          SUNNY     79  68  69 W5        30.13R
JONESVILLE*      N/A     77  72  83 CALM      30.08R
ABINGDON*      SUNNY     78  71  78 CALM      30.10R
BRISTOL        MOSUNNY   77  71  82 CALM      30.06R
MORRISTOWN*    SUNNY     81  72  74 CALM      30.05R
SEVIERVILLE*   SUNNY     81  70  69 CALM      30.03R
KNOXVILLE      SUNNY     80  71  74 SW7       30.03R
LAFOLLETTE*    SUNNY     79  73  83 CALM      30.07R
OAK RIDGE      SUNNY     81  73  76 VRB3      30.04R
CROSSVILLE     SUNNY     78  71  79 SW5       30.09R
NASHVILLE      SUNNY     83  74  74 S5        29.99R
$$

...KEY TO REMARKS...
VSB - VISIBILITY IN MILES
WCI - WIND CHILL INDEX
HX  - HEAT INDEX

$$




USA.gov is the U.S. government's official web portal to all federal, state and local government web resources and services.